Weather Roundup
Issued by NWS Corpus Christi, TX

Home | Current Version | Previous Version | Text Only | Print | Product List | Glossary On
Versions: 1 2 3 4 5 6 7 8 9 10 11 12 13 14 15 16 17 18 19 20 21 22 23 24 25 26 27 28 29 30 31 32 33 34 35 36 37 38 39 40 41 42 43 44 45 46 47 48 49 50
526
ASUS44 KCRP 210510
HRRCRP

SOUTH TEXAS REGIONAL WEATHER ROUNDUP
NATIONAL WEATHER SERVICE CORPUS CHRISTI TX
1100 PM CST MON FEB 20 2017


TXZ229>244-210600-
...CORPUS CHRISTI AREA OBSERVATIONS...

CITY           SKY/WX    TMP DP  RH WIND       PRES   REMARKS
CORPUS CHRISTI CLEAR     60  60 100 S8        30.02S
NAS CORPUS CHR CLEAR     63  63 100 S7        30.02R
ROCKPORT       CLEAR     63  60  90 S5        30.01S
KINGSVILLE NAS CLEAR     60  60 100 S8        30.03S
ALICE          CLEAR     59  59 100 S7        30.02S
ORANGE GROVE   CLEAR     59  59 100 SW9       30.03S
FALFURRIAS     PTCLDY    60  58  92 S6        30.04S
$$

...VICTORIA AREA OBSERVATIONS...

CITY           SKY/WX    TMP DP  RH WIND       PRES   REMARKS
VICTORIA       CLEAR     60  58  92 S8        30.00S
BEEVILLE       FAIR      56  56 100 S7        30.01S FOG
PLEASANTON     PTCLDY    60  44  55 SW5       29.98S
SAN ANTONIO    PTCLDY    60  44  55 W9        29.97S
$$

...LAREDO AREA OBSERVATIONS...

CITY           SKY/WX    TMP DP  RH WIND       PRES   REMARKS
LAREDO         CLEAR     63  46  54 W5        30.06S
COTULLA        CLEAR     61  43  51 W6        30.01S
DEL RIO        CLEAR     58  40  51 N6        30.06R
MCALLEN        PTCLDY    62  59  90 CALM      30.06R
HEBBRONVILLE   CLEAR     60  47  62 CALM      30.07S
$$

...OTHER TEXAS OBSERVATIONS...

CITY           SKY/WX    TMP DP  RH WIND       PRES   REMARKS
BROWNSVILLE    CLEAR     60  60 100 CALM      30.05R FOG
HOUSTON        PTCLDY    59  58  96 S5        30.00S FOG
COL. STATION   CLEAR     58  57  97 MISG      29.96F
AUSTIN         LGT RAIN  61  58  90 E7        29.98R
WACO           CLEAR     57  56  96 SE9       29.93S
FORT WORTH     CLEAR     58  55  90 SW9       29.91R
WICHITA FALLS  CLEAR     56  43  61 W12       29.93S
LUBBOCK        CLEAR     45  23  42 NW6       30.10R
EL PASO        CLEAR     55  27  34 CALM      30.24R
$$

...MARINE OBSERVATIONS...

STATION/POSITION TIME  SKY/WX   TEMP    WIND        PRES    VSBY  WAVE   SWELL
                                AIR SEA DIR/SP/G                  HT/PER HT/PER
                 (UTC)          (F)     (DEG/KT/KT) (MB)    (MI)  (FT/S) (FT/S)
PORT ARANSAS     0500            66 67  160/ 10/ 11 1016.1S
BUOY 90 E PORT A 0450            68 70  160/  2/  4 1016.4F         3/ 7   3/ 7
BUOY 45 SE BAFFI 0350            69     120/  4/  6 1016.2          4/ 8   3/ 8
BUOY 200 E PT IS 0450            66 75   50/ 10/ 14 1017.4F         6/ 7   5/ 7
BUOY 15 E GALVES 0450            63 64   CALM  /  2 1017.0R         2/ 7   2/ 7
$$




USA.gov is the U.S. government's official web portal to all federal, state and local government web resources and services.